Flag for U.S.A. Weather past 2 weeks in Fairbanks, Alaska, U.S.A.

Now
81 °F

Sunny.


Feels Like: 80 °F
Forecast: 56 / 74 °F
Wind: 13 mph from South

Location: Wainwright U. S. Army Airfield

Current Time: Jul 4, 2015 at 4:19:36 PM

Latest Report: Jul 4, 2015 at 3:56 PM


Visibility: 10 mi

Pressure: 30.02 "Hg

Humidity: 28%

Dew point: 45 °F

Location of FairbanksLocation

Historic Weather in Fairbanks — Graph

°F

Fairbanks temperature yesterday

Maximum temperature yesterday: 69 °F (at 9:56 PM)
Minimum temperature yesterday: 45 °F (at 3:56 AM)
Average temperature yesterday: 55 °F

Past Weeks' High & Low Weather Summary

 TemperatureHumidityPressure
High87 °F (Jun 20, 5:56 PM)94% (Jul 1, 6:55 AM)30.15 "Hg (Jul 1, 6:55 AM)
Low45 °F (Jul 3, 3:56 AM)18% (Jun 19, 4:55 PM)29.62 "Hg (Jun 25, 6:55 PM)
Average65 °F63%29.89 "Hg
* Reported Jun 19 2:55 PM — Jul 4 2:56 PM, Fairbanks, Weather by CustomWeather, © 2015

Note: Actual official high and low records may vary slightly from our data, if they occured in-between our weather recording intervals... More about our weather records

Advertising

Fairbanks weather history for previous 24 hours

 ConditionsComfort  
Time TempWeatherWind HumidityBarometerVisibility
2:56 PM
Sat, Jul 4
81 °FPassing clouds.13 mph28%30.03 "Hg10 mi
1:56 PM79 °FSunny.10 mph30%30.05 "Hg10 mi
12:56 PM77 °FSunny.9 mph29%30.06 "Hg10 mi
11:56 AM76 °FSunny.12 mph32%30.08 "Hg10 mi
10:56 AM72 °FSunny.12 mph38%30.10 "Hg10 mi
9:56 AM67 °FSunny.3 mph49%30.11 "Hg10 mi
8:56 AM63 °FOvercast.No wind54%30.12 "Hg10 mi
7:56 AM58 °FPartly sunny.6 mph62%30.13 "Hg10 mi
6:56 AM55 °FPartly sunny.6 mph67%30.13 "Hg10 mi
5:56 AM53 °FPartly sunny.7 mph72%30.13 "Hg10 mi
4:56 AM52 °FSunny.6 mph72%30.13 "Hg10 mi
3:56 AM53 °FPassing clouds.7 mph72%30.14 "Hg10 mi
2:56 AM54 °FPassing clouds.8 mph69%30.14 "Hg10 mi
1:56 AM57 °FSunny.8 mph64%30.13 "Hg10 mi
12:56 AM58 °FSunny.No wind65%30.13 "Hg10 mi
11:56 PM
Fri, Jul 3
61 °FMostly cloudy.No wind65%30.13 "Hg10 mi
10:56 PM65 °FSunny.3 mph54%30.12 "Hg10 mi
9:56 PM69 °FSunny.3 mph41%30.12 "Hg10 mi
Weather by CustomWeather, © 2015

See weather overviewHow to use our weather pages